Ana Sayfa
METAR-TAF:

METAR-TAF

Havaalanları :

Rolla National Airport

Rolla, Missouri, Amerika Birleşik Devletleri

Enlem: 38-07-55N, Boylam: 091-45-55W, yükseklik: 350 m

Güncel hava durumu gözlemi

Rapor saat 20:53 UTC de 56 dakika önce yapıldı.
Rüzgar güneydan 17 kt ve 27 kt'a kadar ani rüzgarlar
Sıcaklık 30°C
Nem 49%
Basınç 1005 hPa
Görüş mesafesi: 16.1 km
Açık gökyüzü

METAR: KVIH 212053Z AUTO 19017G27KT 10SM CLR 30/18 A2967 RMK AO2 PK WND 17038/2035 SLP033 60000 T03000183 56022

Saat: 16:49 (21:49 UTC)


TAF: eksik

4.000'den fazla havaalanı için hava durumu gözlemleri ve tahminleri (METAR ve TAF raporları).

Kullanılabilir istasyonlar harita üzerinde sarı ve kırmızı noktalarla gösterilir.

İstasyonun adını görmek için fareyi noktanın üzerinde gezdirin.

Sonrasında hava gözlem ve tahminlerini görmek için tıklayın.

Haritayı değiştirmek için: yaklaştırmak için siyah artı işaretli yeşil düğmeye ve uzaklaştırmak için de eksi işaretli düğmeye hızla tıklayın; bitişik haritalar için yeşil okları kullanın.


METAR-TAF: